Culdrose, United Kingdom

1:22 PM BST on April 24, 2017 (GMT +0100)
Culdrose Navy

Weather History for EGDR - November, 2011

Change the Weather History Date:

Wednesday, November 30, 2011

  Actual Average Record
Temperature  
Mean Temperature 52 °F -  
Max Temperature 54 °F 47 °F 55 °F (2000)
Min Temperature 49 °F 40 °F 26 °F (2010)
Degree Days  
Heating Degree Days 14    
Growing Degree Days 2 (Base 50)    
Moisture  
Dew Point 46 °F    
Average Humidity 78    
Maximum Humidity 94    
Minimum Humidity 61    
Precipitation  
Precipitation 0.02 in - - ()
Sea Level Pressure  
Sea Level Pressure 30.00 in    
Wind  
Wind Speed 18 mph ()    
Max Wind Speed 33 mph    
Max Gust Speed 48 mph    
Visibility 6.5 miles    
Events Rain    
Averages and records for this station are not official NWS values.
T = Trace of Precipitation, MM = Missing Value Source: Averaged Metar Reports

Daily Weather History Graph

Daily Weather History Graph

Search for Another Location

Airport or City:

Trip Planner

Search our weather history database for the weather conditions in past years. The results will help you decide how hot, cold, wet, or windy it might be!

Date:

Astronomy

Nov. 30, 2011 Rise Set
Actual Time 7:56 AM GMT 4:22 PM GMT
Civil Twilight 7:18 AM GMT 4:59 PM GMT
Nautical Twilight 6:38 AM GMT 5:40 PM GMT
Astronomical Twilight 5:59 AM GMT 6:19 PM GMT
Moon 11:51 AM GMT (11/30) 10:24 PM GMT (11/30)
Length of Visible Light 9h 41m
Length of Day
8h 26m
Waxing Crescent, 31% of the Moon is Illuminated
Nov 30
Waxing Crescent
Dec 2
First Quarter
Dec 10
Full
Dec 18
Last Quarter
Dec 24
New

Hourly Weather History & Observations

Time (GMT) Temp. Dew Point Humidity Pressure Visibility Wind Dir Wind Speed Gust Speed Precip Events Conditions
12:50 AM 50.0 °F 42.8 °F 76% 30.09 in 6.2 mi WSW 20.7 mph 34.5 mph N/A Rain Light Rain Showers
1:50 AM 50.0 °F 42.8 °F 76% 30.09 in 6.2 mi WSW 20.7 mph - N/A   Mostly Cloudy
2:50 AM 50.0 °F 44.6 °F 82% 30.09 in 6.2 mi WSW 16.1 mph - N/A   Scattered Clouds
3:50 AM 50.0 °F 44.6 °F 82% 30.09 in 6.2 mi WSW 24.2 mph - N/A   Partly Cloudy
4:50 AM 50.0 °F 42.8 °F 76% 30.12 in 6.2 mi WSW 20.7 mph 32.2 mph N/A   Partly Cloudy
5:50 AM 49 °F 45 °F 80% 30.14 in 7 mi WSW 19.6 mph - - Rain Light Rain Showers
5:50 AM 50.0 °F 44.6 °F 82% 30.12 in 6.2 mi WSW 19.6 mph - N/A   Scattered Clouds
6:50 AM 51.8 °F 46.4 °F 82% 30.12 in 6.2 mi SW 21.9 mph - N/A   Scattered Clouds
7:50 AM 50.0 °F 44.6 °F 82% 30.12 in 6.2 mi SW 17.3 mph - N/A Rain Light Rain Showers
8:50 AM 52 °F 45 °F 69% 30.15 in 12 mi SW 17.3 mph - - Rain Light Rain Showers
8:50 AM 51.8 °F 44.6 °F 76% 30.12 in 6.2 mi SW 17.3 mph 28.8 mph N/A   Mostly Cloudy
9:50 AM 51.8 °F 44.6 °F 76% 30.12 in 6.2 mi SW 18.4 mph - N/A   Mostly Cloudy
10:50 AM 53.6 °F 44.6 °F 72% 30.12 in 6.2 mi SW 20.7 mph 33.4 mph N/A   Mostly Cloudy
11:50 AM 53 °F 45 °F 66% 30.12 in 12 mi SW 21.9 mph - -   Mostly Cloudy
11:50 AM 53.6 °F 44.6 °F 72% 30.09 in 6.2 mi SW 21.9 mph 33.4 mph N/A   Mostly Cloudy
12:50 PM 53.6 °F 44.6 °F 72% 30.06 in 6.2 mi SSW 18.4 mph 31.1 mph N/A   Mostly Cloudy
1:50 PM 51.8 °F 44.6 °F 76% 30.06 in 6.2 mi SSW 18.4 mph 32.2 mph N/A   Mostly Cloudy
2:50 PM 53 °F 43 °F 61% 30.03 in 9 mi SSW 19.6 mph - - Rain Light Rain Showers
2:50 PM 53.6 °F 42.8 °F 67% 30.01 in 6.2 mi SSW 19.6 mph 36.8 mph N/A   Mostly Cloudy
3:05 PM 53.6 °F 42.8 °F 67% 30.01 in 6.2 mi SSW 20.7 mph 35.7 mph N/A   Overcast
3:50 PM 53.6 °F 42.8 °F 67% 29.98 in 6.2 mi SSW 21.9 mph 34.5 mph N/A   Mostly Cloudy
4:50 PM 53.6 °F 44.6 °F 72% 29.95 in 6.2 mi SSW 18.4 mph 33.4 mph N/A   Mostly Cloudy
5:50 PM 51 °F 48 °F 87% 29.91 in 7 mi SSW 17.3 mph - - Rain Light Rain Showers
5:50 PM 51.8 °F 48.2 °F 88% 29.89 in 6.2 mi SSW 17.3 mph 33.4 mph N/A   Overcast
6:50 PM 53.6 °F 48.2 °F 82% 29.89 in 6.2 mi SSW 15.0 mph 28.8 mph N/A   Overcast
7:50 PM 51.8 °F 50.0 °F 94% 29.83 in 3.7 mi SW 15.0 mph 27.6 mph N/A Rain Light Rain
8:50 PM 51 °F 49 °F 89% 29.82 in 3 mi SW 23.0 mph - - Rain Rain
8:50 PM 51.8 °F 48.2 °F 88% 29.80 in 3.1 mi SW 23.0 mph 41.4 mph N/A Rain Rain
9:50 PM 51.8 °F 48.2 °F 88% 29.77 in 6.2 mi WSW 25.3 mph 39.1 mph N/A   Overcast
10:50 PM 53.6 °F 48.2 °F 82% 29.77 in 6.2 mi SW 25.3 mph 40.3 mph N/A   Overcast
11:50 PM 54 °F 49 °F 79% 29.77 in 7 mi SW 33.4 mph - -   Overcast
11:50 PM 53.6 °F 50.0 °F 88% 29.77 in 6.2 mi SW 33.4 mph 48.3 mph N/A   Overcast